Location: Torrington
(42.0650°N, 104.1810°W)
Time: 17:05:02
(UTC-06:00)

Amateur Radio Satellites - All Passes

Search period start: 25 June 2016 16:35
Search period end: 26 June 2016 16:35
Location: Torrington, 42.0650°N, 104.1810°W

Satellite Date Start Highest point End Downlink Frequencies (MHz)
Time Altitude Azimuth
AIST 1 25 Jun 16:36:32 16:38:18 12° 84° (E) 16:40:04
Cubesat XI-IV 25 Jun 16:48:25 16:50:41 13° 57° (ENE) 16:52:58 437.490
BRITE-PL 25 Jun 16:52:30 16:55:25 16° 64° (ENE) 16:58:13 437.365/2234.400
MOZHAYETS 4 25 Jun 16:54:16 16:58:56 80° 103° (ESE) 17:03:34
SWISSCUBE 25 Jun 16:58:35 17:00:43 13° 300° (WNW) 17:02:51 437.505
Cosmos 2504 25 Jun 17:02:39 17:08:02 18° 300° (WNW) 17:13:38 435.465 / 435.565
ISS 25 Jun 17:12:48 17:15:50 35° 222° (SW) 17:18:50 145.825
CUTE-I 25 Jun 17:21:30 17:25:46 25° 64° (ENE) 17:30:03 437.470
KKS-1 25 Jun 17:29:15 17:33:24 40° 289° (WNW) 17:37:32 437.445
SO-50 25 Jun 17:37:40 17:42:28 54° 307° (NW) 17:47:16 436.795
LilacSat-2 25 Jun 17:40:57 17:44:01 24° 69° (ENE) 17:47:07 437.200
GONETS M04 25 Jun 17:42:28 17:48:43 23° 79° (E) 17:54:57
AO-7 25 Jun 17:42:42 17:47:48 17° 270° (W) 17:52:58 29.400- 29.500
GOMX 1 25 Jun 17:43:04 17:46:27 20° 67° (ENE) 17:49:41 467.674
NOAA 18 25 Jun 17:51:40 17:56:56 52° 70° (ENE) 18:02:15 137.9125
HORYU 2 25 Jun 17:53:50 17:57:26 24° 265° (W) 18:01:03 437.375
NOAA 15 25 Jun 17:59:44 18:05:01 74° 74° (ENE) 18:10:19 137.62
Cosmos 2499 25 Jun 18:02:06 18:07:28 19° 77° (ENE) 18:13:01 435.465 / 435.565
STARS 25 Jun 18:10:59 18:14:45 29° 292° (WNW) 18:18:31 437.465
AIST 1 25 Jun 18:11:06 18:15:22 55° 281° (W) 18:19:38
CUBESAT XI-V 25 Jun 18:12:37 18:17:14 62° 101° (E) 18:21:47 437.345
RS-15 25 Jun 18:14:33 18:24:09 26° 12° (NNE) 18:33:51 29.354- 29.394
Cubesat XI-IV 25 Jun 18:24:35 18:29:56 87° 75° (ENE) 18:35:20 437.490
BRITE-PL 25 Jun 18:28:18 18:33:29 66° 259° (W) 18:38:17 437.365/2234.400
MOZHAYETS 4 25 Jun 18:33:41 18:35:26 12° 300° (WNW) 18:37:10
CINEMA 3 25 Jun 18:45:39 18:46:33 11° 62° (ENE) 18:47:26 145.822/145.860
HO-68 25 Jun 18:47:58 18:53:46 28° 59° (ENE) 18:59:34 435.675
CANX-2 25 Jun 18:58:02 19:00:37 16° 64° (ENE) 19:03:14 2200.000
DOVE 4 25 Jun 18:59:12 19:03:29 53° 74° (ENE) 19:07:36 437.250
CUTE-I 25 Jun 19:00:26 19:05:31 45° 261° (W) 19:10:40 437.470
COMPASS 1 25 Jun 19:14:53 19:15:36 10° 61° (ENE) 19:16:21 437.405
LilacSat-2 25 Jun 19:15:15 19:18:16 23° 265° (W) 19:21:20 437.200
CUTE 1.7 + AOD 2 25 Jun 19:17:52 19:21:10 22° 67° (ENE) 19:24:30 437.475
GOMX 1 25 Jun 19:19:50 19:24:19 41° 261° (W) 19:28:33 467.674
SO-50 25 Jun 19:22:19 19:24:02 12° 328° (NNW) 19:25:45 436.795
DANDE 25 Jun 19:23:21 19:28:36 42° 71° (ENE) 19:32:32 436.750
SEEDS 25 Jun 19:28:07 19:31:17 21° 67° (ENE) 19:34:27 437.485
CUSAT 1 25 Jun 19:32:07 19:36:06 55° 265° (W) 19:39:12 437.405
NOAA 18 25 Jun 19:33:47 19:37:53 22° 267° (W) 19:42:01 137.9125
GONETS M04 25 Jun 19:35:50 19:44:33 76° 279° (W) 19:53:17
NOAA 15 25 Jun 19:42:37 19:45:19 14° 270° (W) 19:48:02 137.62
STRAND 1 25 Jun 19:50:17 19:55:11 43° 98° (E) 20:00:04 437.568
Cosmos 2499 25 Jun 19:51:03 19:59:16 88° 274° (W) 20:08:06 435.465 / 435.565
CUBESAT XI-V 25 Jun 19:51:32 19:54:04 15° 298° (WNW) 19:56:37 437.345
UWE-3 25 Jun 19:58:08 20:00:22 14° 63° (ENE) 20:02:39 435.000/436.395/437.385
Oscar 11 25 Jun 20:01:46 20:03:22 12° 62° (ENE) 20:04:58 145.826/435.025
FUNcube-1 25 Jun 20:05:34 20:06:26 11° 61° (ENE) 20:07:18 145.935
Cubesat XI-IV 25 Jun 20:08:54 20:10:42 12° 272° (W) 20:12:30 437.490
AAUSAT CUBESAT 2 25 Jun 20:15:54 20:19:45 37° 71° (ENE) 20:23:39 437.432
CINEMA 3 25 Jun 20:18:58 20:23:06 70° 258° (WSW) 20:27:16 145.822/145.860
AUBIESAT-1 25 Jun 20:24:57 20:28:00 36° 67° (ENE) 20:31:05 437.475
RS-15 25 Jun 20:28:37 20:40:33 52° 44° (NE) 20:52:27 29.354- 29.394
CANX-2 25 Jun 20:31:56 20:36:05 49° 261° (W) 20:40:16 2200.000
HO-68 25 Jun 20:33:55 20:40:58 63° 257° (WSW) 20:48:06 435.675
CUBEBUG 2 25 Jun 20:38:02 20:42:04 54° 74° (ENE) 20:46:13 437.445
DOVE 4 25 Jun 20:39:24 20:41:29 13° 269° (W) 20:43:32 437.250
COMPASS 1 25 Jun 20:46:20 20:50:32 78° 258° (WSW) 20:54:47 437.405
CUTE 1.7 + AOD 2 25 Jun 20:52:57 20:56:49 33° 263° (W) 21:00:44 437.475
DELFI C3 25 Jun 20:55:53 20:58:44 19° 67° (ENE) 21:01:37 145.870
M-CUBED/EXP-1 PRIME 25 Jun 21:01:20 21:04:33 51° 255° (WSW) 21:07:44 437.505
SEEDS 25 Jun 21:02:51 21:06:44 35° 263° (W) 21:10:42 437.485
PRISM 25 Jun 21:06:52 21:10:42 38° 98° (E) 21:14:30 437.425
DANDE 25 Jun 21:07:18 21:10:42 18° 279° (W) 21:13:34 436.750
ZACube-1 25 Jun 21:18:28 21:22:36 70° 75° (ENE) 21:26:52 437.345
HUMSAT D 25 Jun 21:25:09 21:28:08 19° 66° (ENE) 21:31:10 437.325/437.525
AO-85 25 Jun 21:29:00 21:32:54 20° 110° (ESE) 21:36:45 145.980
STRAND 1 25 Jun 21:29:59 21:34:07 25° 296° (WNW) 21:38:13 437.568
UWE-3 25 Jun 21:32:19 21:36:23 52° 260° (W) 21:40:33 435.000/436.395/437.385
Oscar 11 25 Jun 21:34:34 21:38:54 71° 258° (WSW) 21:43:15 145.826/435.025
FUNcube-1 25 Jun 21:37:51 21:42:01 76° 258° (WSW) 21:46:18 145.935
GONETS M04 25 Jun 21:38:05 21:43:01 16° 302° (WNW) 21:47:57
Cosmos 2499 25 Jun 21:48:05 21:53:48 20° 300° (WNW) 21:59:45 435.465 / 435.565
AAUSAT CUBESAT 2 25 Jun 21:52:26 21:55:22 18° 267° (W) 21:58:20 437.432
AUBIESAT-1 25 Jun 22:01:30 22:02:43 12° 262° (W) 22:03:55 437.475
ESTCUBE 1 25 Jun 22:02:46 22:03:43 11° 60° (ENE) 22:04:40 437.505/2401.250
CUBEBUG 2 25 Jun 22:17:21 22:19:05 12° 270° (W) 22:20:51 437.445
AISAT 25 Jun 22:20:23 22:21:01 10° 60° (ENE) 22:21:39 437.250
TIGRISAT 25 Jun 22:29:39 22:33:15 22° 94° (E) 22:36:53 435.000
DELFI C3 25 Jun 22:29:39 22:33:22 35° 263° (W) 22:37:05 145.870
UNISAT 6 25 Jun 22:33:30 22:37:21 26° 95° (E) 22:41:14 437.425
RS-15 25 Jun 22:41:28 22:53:21 57° 248° (WSW) 23:05:05 29.354- 29.394
PRISM 25 Jun 22:42:56 22:45:45 18° 295° (WNW) 22:48:32 437.425
DX 1 25 Jun 22:49:30 22:52:08 16° 63° (ENE) 22:54:48 434.975-435.025
HUMSAT D 25 Jun 22:59:40 23:03:31 36° 263° (W) 23:07:25 437.325/437.525
AO-85 25 Jun 23:07:38 23:13:01 62° 306° (NW) 23:18:13 145.980
VELOX 1 25 Jun 23:12:27 23:16:26 34° 69° (ENE) 23:20:24 145.980
CUBEBUG 1 25 Jun 23:12:42 23:16:41 36° 70° (ENE) 23:20:40 437.445
ANTELSAT 25 Jun 23:12:53 23:17:30 65° 101° (E) 23:22:10 437.575/2403.000
NANOSAT C BR1 25 Jun 23:27:53 23:30:13 14° 91° (E) 23:32:33 145.865
QB50P1 25 Jun 23:28:49 23:31:25 16° 92° (E) 23:33:59 145.935-145.965
POPSAT HIP 1 25 Jun 23:31:37 23:34:20 16° 92° (E) 23:37:04 437.405
ESTCUBE 1 25 Jun 23:35:15 23:39:48 87° 258° (WSW) 23:44:23 437.505/2401.250
QB50P2 25 Jun 23:42:32 23:45:59 23° 95° (E) 23:49:25 145.880/145.840
POLYITAN 1 25 Jun 23:45:08 23:48:37 24° 95° (E) 23:52:05 437.675
YUBILEINY 25 Jun 23:48:36 23:56:57 44° 73° (ENE) 00:05:16 435.215
DUCHIFAT 1 25 Jun 23:49:08 23:52:32 23° 95° (E) 23:55:56 145.980
AISAT 25 Jun 23:52:23 23:56:49 85° 259° (W) 00:01:14 437.250
50 SAT 25 Jun 23:58:20 00:02:01 64° 259° (W) 00:05:44 437.505
TIGRISAT 26 Jun 00:05:45 00:10:02 38° 289° (WNW) 00:14:21 435.000
UKube-1 26 Jun 00:09:30 00:13:49 90° 78° (ENE) 00:18:10 .
UNISAT 6 26 Jun 00:09:56 00:14:04 33° 291° (WNW) 00:18:15 437.425
TISAT 1 26 Jun 00:14:48 00:17:36 18° 65° (ENE) 00:20:24 437.305
SPROUT 26 Jun 00:17:07 00:21:20 71° 75° (ENE) 00:25:35 437.525
DX 1 26 Jun 00:23:42 00:27:56 50° 260° (W) 00:32:11 434.975-435.025
SO-50 26 Jun 00:28:59 00:32:44 23° 42° (NE) 00:36:22 436.795
VELOX 1 26 Jun 00:49:27 00:52:57 23° 265° (W) 00:56:26 145.980
CUBEBUG 1 26 Jun 00:49:46 00:53:04 21° 266° (W) 00:56:21 437.445
ANTELSAT 26 Jun 00:51:12 00:53:41 15° 298° (WNW) 00:56:12 437.575/2403.000
SWISSCUBE 26 Jun 00:51:28 00:53:06 12° 59° (ENE) 00:54:45 437.505
AO-85 26 Jun 00:51:44 00:54:29 14° 325° (NW) 00:57:10 145.980
Cosmos 2491 26 Jun 00:57:09 01:05:39 58° 91° (E) 01:14:09 435.465 / 435.565
Cosmos 2504 26 Jun 00:57:22 01:05:37 39° 71° (ENE) 01:13:34 435.465 / 435.565
BUGSAT 1 26 Jun 00:57:27 01:01:30 61° 101° (E) 01:05:34 437.445
JAS-2 26 Jun 00:59:49 01:04:55 32° 94° (E) 01:09:37 435.910
RS-15 26 Jun 01:00:50 01:02:53 11° 269° (W) 01:04:55 29.354- 29.394
NANOSAT C BR1 26 Jun 01:02:08 01:06:14 49° 287° (WNW) 01:10:20 145.865
QB50P1 26 Jun 01:03:21 01:07:25 45° 288° (WNW) 01:11:29 145.935-145.965
POPSAT HIP 1 26 Jun 01:06:18 01:10:19 43° 288° (WNW) 01:14:21 437.405
ITUPSAT 1 26 Jun 01:14:24 01:17:32 18° 62° (ENE) 01:20:40 437.325
BEESAT 26 Jun 01:15:19 01:18:31 18° 63° (ENE) 01:21:44 436.000
QB50P2 26 Jun 01:18:03 01:21:48 30° 291° (WNW) 01:25:32 145.880/145.840
POLYITAN 1 26 Jun 01:20:41 01:24:25 30° 291° (WNW) 01:28:08 437.675
Oscar 19 26 Jun 01:23:26 01:27:01 19° 92° (E) 01:30:35 437.125/150
DUCHIFAT 1 26 Jun 01:24:32 01:28:15 30° 291° (WNW) 01:31:57 145.980
YUBILEINY 26 Jun 01:45:35 01:53:40 42° 273° (W) 02:01:45 435.215
TISAT 1 26 Jun 01:49:02 01:52:57 40° 262° (W) 01:56:54 437.305
SO-50 26 Jun 02:08:59 02:13:31 52° 242° (WSW) 02:17:53 436.795
SWISSCUBE 26 Jun 02:25:22 02:30:10 87° 258° (WSW) 02:35:00 437.505
BEESAT 3 26 Jun 02:33:59 02:36:09 14° 110° (ESE) 02:38:20 437.485
BUGSAT 1 26 Jun 02:34:45 02:36:23 12° 297° (WNW) 02:38:01 437.445
O/OREOS (USA 219) 26 Jun 02:38:41 02:41:48 19° 101° (E) 02:44:56 437.305
PCSat 26 Jun 02:41:50 02:46:58 46° 113° (ESE) 02:52:09 145.827
JAS-2 26 Jun 02:44:52 02:50:01 34° 295° (WNW) 02:54:46 435.910
ITUPSAT 1 26 Jun 02:50:12 02:54:55 56° 259° (W) 02:59:40 437.325
Cosmos 2504 26 Jun 02:50:43 02:59:09 49° 272° (W) 03:07:18 435.465 / 435.565
BEESAT 26 Jun 02:51:13 02:55:53 53° 260° (W) 03:00:35 436.000
KKS-1 26 Jun 02:52:11 02:55:22 20° 65° (ENE) 02:58:34 437.445
Gurwin Techsat 1B 26 Jun 02:54:37 02:59:54 60° 101° (E) 03:05:08 435.225
Cosmos 2491 26 Jun 02:55:17 03:02:55 32° 291° (WNW) 03:10:35 435.465 / 435.565
Oscar 19 26 Jun 03:01:40 03:06:38 52° 289° (WNW) 03:11:35 437.125/150
BEESAT 2 26 Jun 03:05:21 03:08:02 18° 111° (ESE) 03:10:44 435.950
ITAMSAT 1 26 Jun 03:17:43 03:22:30 35° 97° (E) 03:27:14 435.822/435.867
STARS 26 Jun 03:31:54 03:35:28 26° 67° (ENE) 03:39:04 437.465
AO-7 26 Jun 03:47:21 03:54:34 31° 96° (E) 04:01:43 29.400- 29.500
GONETS M04 26 Jun 03:53:13 03:54:59 11° 53° (NE) 03:56:45
MOZHAYETS 4 26 Jun 03:56:09 04:00:46 78° 75° (ENE) 04:05:25
BEESAT 3 26 Jun 04:09:36 04:13:25 50° 307° (NW) 04:17:16 437.485
O/OREOS (USA 219) 26 Jun 04:16:36 04:20:52 42° 298° (WNW) 04:25:10 437.305
AIST 1 26 Jun 04:17:44 04:21:39 34° 76° (ENE) 04:25:31
PCSat 26 Jun 04:25:52 04:30:33 29° 312° (NW) 04:35:16 145.827
KKS-1 26 Jun 04:27:28 04:31:39 41° 262° (W) 04:35:51 437.445
Gurwin Techsat 1B 26 Jun 04:35:40 04:39:22 19° 298° (WNW) 04:43:03 435.225
BEESAT 2 26 Jun 04:41:47 04:45:33 42° 308° (NW) 04:49:23 435.950
ITAMSAT 1 26 Jun 04:57:20 05:01:52 30° 294° (WNW) 05:06:22 435.822/435.867
AIST 2 26 Jun 05:01:05 05:03:46 17° 111° (ESE) 05:06:29 435.215
STARS 26 Jun 05:07:54 05:11:43 29° 263° (W) 05:15:33 437.465
CUBESAT XI-V 26 Jun 05:15:55 05:20:34 63° 74° (ENE) 05:25:13 437.345
MOZHAYETS 4 26 Jun 05:37:37 05:38:29 10° 272° (W) 05:39:21
AO-7 26 Jun 05:39:32 05:47:45 61° 294° (WNW) 05:55:55 29.400- 29.500
Cosmos 2499 26 Jun 05:42:19 05:50:24 38° 70° (ENE) 05:58:03 435.465 / 435.565
HORYU 2 26 Jun 05:43:09 05:47:37 60° 102° (ESE) 05:52:03 437.375
GONETS M04 26 Jun 05:45:34 05:54:07 56° 77° (ENE) 06:02:39
AIST 1 26 Jun 05:55:59 05:58:58 19° 273° (W) 06:01:57
AO-85 26 Jun 06:00:00 06:03:22 19° 40° (NE) 06:06:32 145.980
NOAA 18 26 Jun 06:13:58 06:18:04 21° 93° (E) 06:22:10 137.9125
NOAA 15 26 Jun 06:15:01 06:19:24 26° 95° (E) 06:23:43 137.62
BRITE-PL 26 Jun 06:33:00 06:36:47 33° 97° (E) 06:40:33 437.365/2234.400
AIST 2 26 Jun 06:37:56 06:41:54 46° 308° (NW) 06:45:55 435.215
Cubesat XI-IV 26 Jun 06:41:42 06:46:35 34° 97° (E) 06:51:25 437.490
LilacSat-2 26 Jun 06:47:22 06:50:56 34° 97° (E) 06:54:29 437.200
DANDE 26 Jun 06:50:41 06:53:43 12° 78° (ENE) 06:56:41 436.750
CUSAT 1 26 Jun 06:50:45 06:56:37 24° 87° (E) 07:01:57 437.405
CUBESAT XI-V 26 Jun 06:56:00 06:58:21 14° 270° (W) 07:00:42 437.345
DOVE 4 26 Jun 06:58:34 07:00:38 13° 91° (E) 07:02:44 437.250
STRAND 1 26 Jun 07:06:23 07:11:28 64° 73° (ENE) 07:16:35 437.568
CUTE-I 26 Jun 07:16:39 07:22:03 71° 102° (ESE) 07:27:24 437.470
GOMX 1 26 Jun 07:20:32 07:24:35 49° 99° (E) 07:28:46 467.674
HORYU 2 26 Jun 07:21:11 07:23:40 15° 298° (WNW) 07:26:09 437.375
AO-7 26 Jun 07:34:38 07:38:50 15° 316° (NW) 07:43:02 29.400- 29.500
Cosmos 2499 26 Jun 07:35:20 07:43:44 51° 271° (W) 07:51:42 435.465 / 435.565
AO-85 26 Jun 07:39:50 07:44:17 59° 241° (WSW) 07:48:21 145.980
PHONESAT 2.4 26 Jun 07:42:54 07:44:51 16° 152° (SSE) 07:46:47 2401.200-2431.200
GONETS M04 26 Jun 07:43:05 07:50:28 32° 276° (W) 07:57:52
NOAA 18 26 Jun 07:53:38 07:59:02 55° 290° (WNW) 08:04:25 137.9125
NOAA 15 26 Jun 07:54:23 07:59:16 40° 292° (WNW) 08:04:07 137.62
PRISM 26 Jun 07:56:40 08:00:18 30° 69° (ENE) 08:03:56 437.425
HO-68 26 Jun 08:01:45 08:07:33 26° 93° (E) 08:13:19 435.675
BRITE-PL 26 Jun 08:12:04 08:15:06 20° 294° (WNW) 08:18:07 437.365/2234.400
CINEMA 3 26 Jun 08:12:51 08:16:38 26° 95° (E) 08:20:32 145.822/145.860
CANX-2 26 Jun 08:16:48 08:20:27 27° 95° (E) 08:24:05 2200.000
Cubesat XI-IV 26 Jun 08:21:49 08:26:35 33° 293° (WNW) 08:31:19 437.490
LilacSat-2 26 Jun 08:22:20 08:24:59 18° 293° (WNW) 08:27:38 437.200
DANDE 26 Jun 08:27:00 08:35:14 63° 94° (E) 08:43:05 436.750
CUBEBUG 2 26 Jun 08:29:52 08:31:47 12° 90° (E) 08:33:42 437.445
COMPASS 1 26 Jun 08:29:55 08:32:36 16° 92° (E) 08:35:14 437.405
CUSAT 1 26 Jun 08:30:21 08:38:17 72° 281° (W) 08:45:07 437.405
DOVE 4 26 Jun 08:34:28 08:38:38 55° 286° (WNW) 08:43:00 437.250
CUTE 1.7 + AOD 2 26 Jun 08:37:04 08:41:06 39° 98° (E) 08:45:06 437.475
SEEDS 26 Jun 08:46:06 08:50:00 35° 97° (E) 08:53:52 437.485
STRAND 1 26 Jun 08:48:03 08:51:05 16° 269° (W) 08:54:07 437.568
CUTE-I 26 Jun 08:58:08 09:01:30 17° 300° (WNW) 09:04:51 437.470
GOMX 1 26 Jun 09:00:02 09:02:20 15° 296° (WNW) 09:04:40 467.674
ZACube-1 26 Jun 09:07:36 09:10:02 14° 91° (E) 09:12:27 437.345
PHONESAT 2.4 26 Jun 09:18:05 09:21:03 48° 168° (SSE) 09:24:02 2401.200-2431.200
UWE-3 26 Jun 09:21:15 09:25:16 30° 96° (E) 09:29:19 435.000/436.395/437.385
Oscar 11 26 Jun 09:22:06 09:25:22 20° 93° (E) 09:28:35 145.826/435.025
FUNcube-1 26 Jun 09:25:51 09:29:17 21° 93° (E) 09:32:43 145.935
TIGRISAT 26 Jun 09:29:20 09:32:24 19° 65° (ENE) 09:35:32 435.000
PRISM 26 Jun 09:32:17 09:35:37 23° 265° (W) 09:38:57 437.425
AAUSAT CUBESAT 2 26 Jun 09:32:44 09:36:55 67° 101° (ESE) 09:41:02 437.432
UNISAT 6 26 Jun 09:33:13 09:36:34 23° 66° (ENE) 09:39:59 437.425
AUBIESAT-1 26 Jun 09:36:26 09:39:49 28° 103° (ESE) 09:43:25 437.475
HO-68 26 Jun 09:48:36 09:55:42 62° 291° (WNW) 10:02:45 435.675
CINEMA 3 26 Jun 09:49:48 09:53:46 31° 290° (WNW) 09:57:52 145.822/145.860
ISS 26 Jun 09:52:08 09:55:18 52° 141° (SE) 09:58:29 145.825
CANX-2 26 Jun 09:52:37 09:56:15 27° 291° (WNW) 09:59:51 2200.000
CUBEBUG 2 26 Jun 10:04:15 10:08:47 68° 285° (WNW) 10:13:26 437.445
COMPASS 1 26 Jun 10:04:23 10:08:21 42° 288° (WNW) 10:12:17 437.405
DELFI C3 26 Jun 10:06:54 10:10:19 27° 95° (E) 10:13:42 145.870
DANDE 26 Jun 10:11:07 10:18:26 32° 291° (WNW) 10:25:24 436.750
ANTELSAT 26 Jun 10:12:06 10:16:18 57° 73° (ENE) 10:20:36 437.575/2403.000
M-CUBED/EXP-1 PRIME 26 Jun 10:13:06 10:16:55 86° 283° (WNW) 10:21:02 437.505
CUTE 1.7 + AOD 2 26 Jun 10:13:36 10:16:40 19° 294° (WNW) 10:19:43 437.475
CUSAT 1 26 Jun 10:17:24 10:21:11 14° 297° (WNW) 10:24:43 437.405
NANOSAT C BR1 26 Jun 10:21:33 10:23:11 12° 62° (ENE) 10:24:50 145.865
SEEDS 26 Jun 10:22:18 10:25:29 21° 293° (WNW) 10:28:38 437.485
QB50P1 26 Jun 10:22:38 10:24:37 13° 63° (ENE) 10:26:36 145.935-145.965
POPSAT HIP 1 26 Jun 10:25:24 10:27:33 14° 63° (ENE) 10:29:42 437.405
QB50P2 26 Jun 10:36:04 10:39:03 19° 66° (ENE) 10:42:04 145.880/145.840
POLYITAN 1 26 Jun 10:38:39 10:41:40 20° 66° (ENE) 10:44:42 437.675
DUCHIFAT 1 26 Jun 10:41:57 10:44:52 19° 65° (ENE) 10:47:48 145.980
ZACube-1 26 Jun 10:42:10 10:46:38 58° 286° (WNW) 10:51:07 437.345
HUMSAT D 26 Jun 10:42:23 10:46:19 33° 97° (E) 10:50:12 437.325/437.525
BEESAT 3 26 Jun 10:50:02 10:52:04 14° 40° (NE) 10:54:07 437.485
PHONESAT 2.4 26 Jun 10:54:30 10:57:33 63° 185° (S) 11:00:37 2401.200-2431.200
RS-15 26 Jun 10:55:45 11:04:12 25° 100° (E) 11:12:56 29.354- 29.394
Oscar 11 26 Jun 10:57:35 11:01:35 36° 290° (WNW) 11:05:35 145.826/435.025
UWE-3 26 Jun 10:57:45 11:01:38 28° 291° (WNW) 11:05:34 435.000/436.395/437.385
FUNcube-1 26 Jun 11:01:26 11:05:37 39° 289° (WNW) 11:09:51 145.935
TIGRISAT 26 Jun 11:04:49 11:08:49 39° 262° (W) 11:12:55 435.000
Cosmos 2491 26 Jun 11:07:19 11:14:38 29° 67° (ENE) 11:21:54 435.465 / 435.565
UNISAT 6 26 Jun 11:09:14 11:13:06 33° 263° (W) 11:17:04 437.425
AAUSAT CUBESAT 2 26 Jun 11:10:22 11:11:50 12° 298° (WNW) 11:13:16 437.432
AUBIESAT-1 26 Jun 11:11:06 11:14:12 24° 296° (WNW) 11:17:29 437.475
JAS-2 26 Jun 11:12:04 11:17:28 22° 60° (ENE) 11:22:32 435.910
BEESAT 2 26 Jun 11:22:24 11:24:55 16° 42° (NE) 11:27:26 435.950
ESTCUBE 1 26 Jun 11:28:17 11:31:29 19° 93° (E) 11:34:40 437.505/2401.250
ISS 26 Jun 11:29:04 11:31:54 27° 339° (NNW) 11:34:45 145.825
PCSat 26 Jun 11:29:08 11:34:16 41° 53° (NE) 11:39:23 145.827
50 SAT 26 Jun 11:29:49 11:30:10 10° 90° (E) 11:30:32 437.505
HO-68 26 Jun 11:39:04 11:42:01 13° 311° (NW) 11:44:57 435.675
DELFI C3 26 Jun 11:41:51 11:45:04 23° 292° (WNW) 11:48:14 145.870
AISAT 26 Jun 11:43:10 11:46:05 17° 93° (E) 11:48:58 437.250
BUGSAT 1 26 Jun 11:47:32 11:51:21 43° 72° (ENE) 11:55:09 437.445
ANTELSAT 26 Jun 11:51:31 11:53:25 13° 270° (W) 11:55:21 437.575/2403.000
NANOSAT C BR1 26 Jun 11:54:15 11:58:23 64° 258° (WSW) 12:02:33 145.865
QB50P1 26 Jun 11:55:47 11:59:54 58° 259° (W) 12:04:03 145.935-145.965
UKube-1 26 Jun 11:57:41 11:59:59 14° 92° (E) 12:02:18 .
POPSAT HIP 1 26 Jun 11:58:46 12:02:52 55° 260° (W) 12:07:00 437.405
SPROUT 26 Jun 12:04:42 12:06:17 12° 90° (E) 12:07:51 437.525
QB50P2 26 Jun 12:10:42 12:14:36 37° 262° (W) 12:18:32 145.880/145.840
DX 1 26 Jun 12:11:43 12:15:20 25° 96° (E) 12:18:55 434.975-435.025
POLYITAN 1 26 Jun 12:13:21 12:17:13 36° 262° (W) 12:21:08 437.675
DUCHIFAT 1 26 Jun 12:16:25 12:20:17 38° 262° (W) 12:24:12 145.980
HUMSAT D 26 Jun 12:18:21 12:21:45 23° 293° (WNW) 12:25:07 437.325/437.525
BEESAT 3 26 Jun 12:26:18 12:30:16 78° 240° (WSW) 12:34:12 437.485
PHONESAT 2.4 26 Jun 12:31:12 12:33:57 29° 200° (SSW) 12:36:40 2401.200-2431.200
CUBEBUG 1 26 Jun 12:36:30 12:40:48 69° 102° (ESE) 12:45:05 437.445
VELOX 1 26 Jun 12:37:52 12:42:14 64° 101° (E) 12:46:36 145.980
Gurwin Techsat 1B 26 Jun 12:39:34 12:42:12 14° 59° (ENE) 12:44:51 435.225
Oscar 19 26 Jun 12:40:25 12:44:50 30° 66° (ENE) 12:49:15 437.125/150
O/OREOS (USA 219) 26 Jun 12:46:46 12:50:58 39° 62° (ENE) 12:55:11 437.305
YUBILEINY 26 Jun 12:49:57 12:58:10 50° 89° (E) 13:06:28 435.215
JAS-2 26 Jun 12:54:02 13:01:48 83° 256° (WSW) 13:08:57 435.910
BEESAT 2 26 Jun 12:59:12 13:03:09 62° 240° (WSW) 13:07:05 435.950
50 SAT 26 Jun 13:00:34 13:04:10 52° 287° (WNW) 13:07:45 437.505
AO-7 26 Jun 13:02:00 13:03:44 11° 39° (NE) 13:05:27 29.400- 29.500
Cosmos 2491 26 Jun 13:03:31 13:12:05 64° 268° (W) 13:20:37 435.465 / 435.565
RS-15 26 Jun 13:03:33 13:14:59 88° 302° (WNW) 13:27:08 29.354- 29.394
ESTCUBE 1 26 Jun 13:04:13 13:08:28 42° 289° (WNW) 13:12:41 437.505/2401.250
ISS 26 Jun 13:07:07 13:09:10 15° 359° (N) 13:11:11 145.825
PCSat 26 Jun 13:12:50 13:17:29 30° 251° (WSW) 13:22:06 145.827
AISAT 26 Jun 13:18:35 13:22:46 44° 289° (WNW) 13:26:56 437.250
AIST 2 26 Jun 13:21:11 13:23:55 17° 42° (NE) 13:26:40 435.215
BUGSAT 1 26 Jun 13:24:39 13:26:56 15° 268° (W) 13:29:14 437.445
UKube-1 26 Jun 13:32:08 13:36:20 52° 288° (WNW) 13:40:31 .
TISAT 1 26 Jun 13:32:28 13:36:06 28° 96° (E) 13:39:43 437.305
Cosmos 2504 26 Jun 13:36:42 13:43:25 30° 82° (E) 13:50:29 435.465 / 435.565
SPROUT 26 Jun 13:38:23 13:42:37 61° 286° (WNW) 13:46:50 437.525
DX 1 26 Jun 13:47:45 13:51:30 29° 292° (WNW) 13:55:14 434.975-435.025
CUBEBUG 1 26 Jun 14:14:50 14:16:31 12° 298° (WNW) 14:18:12 437.445
VELOX 1 26 Jun 14:16:05 14:18:11 13° 298° (WNW) 14:20:17 145.980
Gurwin Techsat 1B 26 Jun 14:16:06 14:21:25 85° 259° (WSW) 14:26:46 435.225
Oscar 19 26 Jun 14:19:22 14:24:02 34° 263° (W) 14:28:44 437.125/150
SWISSCUBE 26 Jun 14:25:47 14:29:36 23° 94° (E) 14:33:22 437.505
O/OREOS (USA 219) 26 Jun 14:26:48 14:30:05 20° 259° (WSW) 14:33:22 437.305
ITAMSAT 1 26 Jun 14:35:55 14:40:59 56° 72° (ENE) 14:46:07 435.822/435.867
JAS-2 26 Jun 14:43:19 14:47:32 16° 272° (W) 14:51:37 435.910
ISS 26 Jun 14:43:44 14:46:28 23° 19° (NNE) 14:49:10 145.825
AO-7 26 Jun 14:46:36 14:54:21 45° 62° (ENE) 15:02:10 29.400- 29.500
YUBILEINY 26 Jun 14:47:16 14:55:09 37° 289° (WNW) 15:03:09 435.215
ITUPSAT 1 26 Jun 14:50:21 14:54:46 35° 97° (E) 14:59:10 437.325
BEESAT 26 Jun 14:50:54 14:55:20 37° 97° (E) 14:59:45 436.000
AIST 2 26 Jun 14:58:41 15:02:49 63° 240° (WSW) 15:06:55 435.215
Cosmos 2491 26 Jun 15:05:16 15:07:01 11° 288° (WNW) 15:08:47 435.465 / 435.565
TISAT 1 26 Jun 15:08:11 15:11:39 25° 292° (WNW) 15:15:06 437.305
RS-15 26 Jun 15:19:01 15:29:21 34° 330° (NNW) 15:40:10 29.354- 29.394
Cosmos 2504 26 Jun 15:28:16 15:36:11 59° 283° (WNW) 15:44:43 435.465 / 435.565
MOZHAYETS 4 26 Jun 15:51:47 15:54:57 18° 92° (E) 15:58:06
SWISSCUBE 26 Jun 16:03:02 16:07:30 39° 291° (WNW) 16:11:55 437.505
ITAMSAT 1 26 Jun 16:17:15 16:20:48 18° 268° (W) 16:24:23 435.822/435.867
KKS-1 26 Jun 16:17:46 16:21:50 34° 98° (E) 16:25:54 437.445
ISS 26 Jun 16:19:54 16:23:10 70° 217° (SW) 16:26:24 145.825
SO-50 26 Jun 16:22:52 16:27:33 47° 117° (ESE) 16:32:13 436.795
